Lapse_Rate
-2.5 -2.8 -3.2 -3.6 -3.7 -4.0 -4.1 -4.4 -4.6 -4.9 -5.1 -5.4 -5.6 -5.6 -5.8 -6.1 -6.0 -5.8 -0.5 2.6 0.6 -0.5 1.0 0.0 1.6 3.0 5.4 5.7 5.7 5.7 6.5 6.5 6.5 6.5 6.5 5.0 6.4 6.3 6.7 5.2 5.9 5.2 4.1 3.7 1.5
-2.4 -3.0 -3.3 -3.7 -4.0 -4.1 -4.4 -4.7 -5.0 -5.2 -5.4 -5.8 -5.7 -5.6 -5.7 -6.1 -5.0 -2.1 0.0 0.2 -0.1 0.4 1.7 2.4 3.2 3.3 3.9 5.3 5.1 5.9 6.5 6.5 6.5 6.5 6.5 6.1 5.9 5.7 6.2 6.1 6.1 5.8 3.7 2.6 1.4
-2.6 -2.9 -3.1 -3.5 -4.0 -4.6 -4.9 -4.9 -5.2 -5.6 -6.0 -5.9 -5.7 -5.6 -5.8 -6.1 0.7 3.9 0.3 -0.2 -0.4 1.3 4.2 5.0 4.0 4.7 5.7 5.3 5.6 5.9 6.5 6.5 6.0 4.9 4.7 5.6 5.3 5.6 6.3 6.5 4.9 4.2 2.5 2.4 1.6
-2.8 -3.1 -3.2 -3.5 -4.1 -4.5 -4.8 -5.1 -5.2 -5.9 -6.0 -5.9 -5.9 -5.5 -5.7 -4.6 6.5 4.3 -0.4 -1.3 -0.2 1.9 5.2 4.7 5.6 5.3 6.3 6.5 5.8 6.5 5.6 5.8 5.2 5.7 5.7 6.4 4.8 5.7 5.1 4.6 4.2 2.6 0.6 1.5 2.2
-2.7 -3.2 -3.5 -3.8 -4.3 -4.9 -5.2 -5.1 -5.4 -5.8 -6.1 -6.2 -6.0 -5.4 -4.5 3.1 2.1 0.8 -0.3 -0.4 -0.3 2.4 4.1 4.5 5.3 5.1 6.5 6.3 6.1 6.5 6.5 5.6 4.6 4.3 4.8 5.2 5.5 6.2 4.9 3.2 3.7 2.7 1.9 2.1 2.2
-3.0 -3.4 -3.8 -4.3 -4.7 -5.2 -5.3 -5.5 -5.9 -6.4 -6.5 -6.2 -5.7 -5.4 0.5 6.2 4.8 0.6 -0.1 0.9 2.2 3.3 3.3 4.4 4.9 4.9 5.9 6.3 6.4 5.8 5.9 5.3 3.8 4.3 5.1 6.4 5.9 5.6 4.4 5.1 3.8 3.3 2.7 3.5 3.5
-3.2 -3.5 -3.9 -4.5 -5.0 -5.2 -5.5 -6.2 -6.6 -6.5 -6.3 -5.9 -5.4 -3.7 2.4 3.8 3.4 0.6 0.9 2.7 2.5 3.9 4.3 4.6 5.5 6.0 5.9 6.5 5.6 5.3 6.5 6.5 6.1 5.9 6.4 5.8 6.5 6.5 4.7 3.8 3.4 2.9 3.8 4.9 5.1
-3.4 -3.8 -4.0 -4.7 -5.2 -5.2 -6.0 -6.7 -6.1 -5.5 -5.7 -5.3 -4.6 -1.8 1.4 3.1 1.7 2.1 1.6 3.8 3.1 3.3 5.2 5.1 5.2 5.7 5.9 5.8 4.9 6.5 6.5 6.5 6.5 6.5 6.2 6.1 6.5 6.5 4.3 2.5 3.3 4.2 5.2 5.4 5.3
-3.7 -3.9 -4.1 -4.7 -5.1 -5.3 -6.3 -6.2 -4.0 -4.2 -4.3 -4.2 -2.0 1.6 4.8 2.6 4.0 3.1 2.4 5.1 3.8 3.9 4.3 6.4 5.6 4.2 4.8 6.5 6.5 6.5 6.5 6.5 6.5 6.4 6.5 6.5 6.5 6.5 4.5 3.5 4.9 5.1 5.0 5.8 5.7
-3.8 -4.1 -4.2 -4.7 -5.0 -5.4 -6.5 -5.6 -3.3 -2.9 -2.5 -1.5 1.0 3.5 4.4 5.9 4.8 4.9 1.9 4.3 5.9 5.7 4.9 4.6 1.9 6.5 6.5 6.5 6.5 6.5 6.5 6.5 6.5 6.5 6.5 6.5 6.5 6.5 5.7 5.1 5.8 4.6 4.7 5.5 5.5
-3.8 -4.2 -4.5 -4.8 -5.3 -5.3 -5.7 -1.9 0.3 2.9 3.1 4.3 4.3 4.6 3.3 3.4 3.8 5.2 3.7 3.6 5.8 4.6 6.5 5.4 6.5 6.5 6.5 6.5 6.5 6.5 6.5 6.5 6.5 6.5 6.5 6.5 6.5 6.5 6.0 5.9 6.2 6.0 5.1 4.0 3.5
-3.9 -4.2 -4.7 -5.0 -5.6 -5.3 -3.9 2.4 5.6 4.3 4.8 2.8 3.1 3.2 2.2 4.3 5.1 5.7 5.0 5.8 6.0 6.5 6.4 6.5 6.5 6.5 6.5 6.5 6.5 6.5 6.5 6.5 6.5 6.5 6.5 6.5 6.5 6.5 6.5 6.3 6.1 6.2 5.1 4.5 3.1
-4.0 -4.2 -4.9 -4.9 -6.2 -2.6 -0.3 3.4 1.9 1.3 4.8 3.2 3.3 3.3 4.4 2.8 4.6 4.4 5.2 4.7 6.4 6.5 6.5 6.5 6.5 6.5 6.5 6.5 6.5 6.5 6.5 6.5 6.5 6.5 6.5 6.5 6.5 6.5 6.5 6.2 6.0 5.6 5.1 4.3 5.0
-4.1 -4.2 -5.0 -6.5 -0.0 -4.0 2.3 1.0 -0.8 0.7 6.5 6.5 6.0 5.9 4.2 4.5 6.1 4.8 4.4 5.0 6.4 6.5 6.5 6.5 6.4 6.5 6.5 6.5 6.5 6.5 6.5 6.5 6.5 6.5 6.5 6.5 6.5 6.5 6.5 6.5 6.5 5.4 5.1 4.5 2.7
-4.1 -4.0 -5.1 -6.4 -4.0 -0.0 2.5 -2.9 -0.8 2.7 6.5 6.5 6.2 5.9 4.9 5.6 5.7 6.4 4.7 5.7 6.5 6.5 6.5 6.5 6.5 6.5 6.5 6.5 6.5 6.5 6.5 6.5 6.5 6.5 6.5 6.5 6.5 6.5 6.5 6.5 6.5 6.1 5.4 4.5 3.5
-4.2 -4.2 -5.6 -6.3 -7.0 -2.9 -2.4 -3.2 1.7 6.5 6.5 6.5 6.1 6.4 6.4 6.1 6.1 5.8 6.1 4.8 5.4 6.5 6.5 6.5 6.1 6.5 6.5 6.5 6.5 6.5 6.5 6.5 6.5 6.5 6.5 6.5 6.5 6.5 6.5 6.5 6.5 6.1 5.3 4.9 4.1
-4.5 -5.1 -6.3 -5.0 1.7 -2.7 -3.3 1.2 6.5 6.5 6.5 6.5 6.5 6.5 6.5 6.5 6.5 6.5 6.5 6.5 6.5 6.5 6.5 6.5 6.5 6.4 6.2 6.5 6.5 6.5 6.5 6.5 6.5 6.5 6.5 6.5 6.5 6.5 6.5 6.5 6.5 6.4 5.3 4.8 4.0
-5.0 -5.7 -5.3 -4.6 -3.5 -3.6 -0.1 6.0 6.5 6.5 6.5 6.5 6.5 6.5 6.5 6.5 6.5 6.5 6.5 6.5 6.5 6.5 6.5 6.5 6.5 6.5 6.5 6.5 6.5 6.5 6.5 6.5 6.5 6.5 6.5 6.5 6.5 6.5 6.5 5.9 5.5 5.2 5.2 4.7 3.7
-5.0 -4.7 -2.9 -2.5 -2.8 -3.5 2.0 6.5 6.5 6.5 6.5 6.5 6.5 6.5 6.5 6.5 6.5 6.5 6.5 6.5 6.5 6.5 6.5 6.5 6.5 6.5 6.5 6.5 6.5 6.5 6.5 6.5 6.5 6.5 6.5 6.5 6.5 6.5 6.5 6.5 5.9 5.3 5.3 4.5 3.2
-4.9 -4.6 -0.4 -0.8 -1.1 0.4 5.3 6.5 6.5 6.3 6.4 6.5 6.5 6.5 6.5 6.5 6.5 6.5 6.5 6.5 6.5 6.4 6.3 6.5 6.5 6.5 6.5 6.3 6.3 6.5 6.5 6.5 6.5 6.5 6.5 6.5 6.5 6.5 6.5 6.5 6.5 6.3 5.1 4.0 2.8
-2.4 1.2 2.0 -0.4 -0.2 0.8 6.5 6.5 6.5 5.3 6.0 6.5 6.5 6.5 6.5 6.5 6.5 6.5 6.5 6.5 6.5 6.5 5.9 6.5 6.5 6.5 6.5 6.5 6.5 6.5 6.5 6.5 6.5 6.5 6.5 6.5 6.5 6.5 6.5 6.5 6.5 6.2 4.8 4.2 3.8
-2.0 6.1 1.7 -0.0 3.9 4.1 6.5 6.5 5.2 6.2 5.0 6.5 6.5 6.5 6.5 6.5 6.5 6.5 6.5 6.5 5.4 6.3 6.5 6.5 6.5 6.5 6.5 6.5 6.5 6.5 6.5 6.5 6.5 6.5 6.5 6.5 6.5 6.5 6.5 6.4 6.0 5.5 4.9 4.2 3.8
-0.1 -0.9 -0.3 1.4 6.5 6.5 6.0 6.5 6.3 6.5 6.5 6.5 6.5 6.5 6.5 6.5 6.5 6.5 6.5 6.0 5.0 6.4 6.5 6.5 6.5 6.5 6.5 6.5 6.5 6.5 6.5 6.5 6.5 6.5 6.5 6.5 6.5 6.5 6.3 6.3 5.3 5.5 4.6 4.3 3.8
1.2 6.5 1.7 0.0 1.7 6.4 6.5 6.5 6.5 5.4 6.4 6.0 6.5 6.2 6.5 6.5 6.5 6.5 6.5 6.5 5.5 6.0 5.0 4.7 6.5 6.5 6.5 6.5 6.5 6.5 6.5 6.5 6.5 6.5 6.5 6.5 6.5 6.5 6.5 6.5 5.8 4.7 4.6 4.5 4.0
1.3 5.5 5.1 6.5 5.8 6.3 6.4 6.5 6.5 6.5 5.8 5.2 6.5 6.5 6.5 6.5 6.5 6.5 6.5 6.5 6.3 5.3 5.7 6.5 6.5 6.5 6.5 6.5 6.5 6.5 6.5 6.5 6.5 6.5 6.5 6.5 6.5 6.5 6.5 6.5 5.6 5.3 5.0 4.8 4.6
3.4 4.4 2.8 4.0 4.2 6.4 6.5 6.5 6.5 6.5 6.5 6.5 6.5 6.5 6.5 6.5 6.5 6.5 6.5 6.5 6.5 6.5 6.5 6.5 6.5 6.5 6.5 6.5 6.5 6.5 6.5 6.5 6.5 6.5 6.5 6.5 6.5 6.5 5.8 5.0 5.4 5.3 5.2 5.2 5.3
2.0 2.6 3.7 4.8 5.9 6.5 6.5 6.5 6.5 6.4 6.1 6.0 6.4 6.5 6.5 6.5 4.6 4.3 2.9 3.8 5.7 6.5 6.5 6.5 6.5 6.5 6.5 6.5 6.5 6.5 6.5 6.5 6.5 6.5 6.5 6.5 6.5 6.5 6.5 6.4 5.6 5.4 5.1 5.4 5.3
Wind_Speed
24 24 24 24 23 23 23 22 21 19 18 17 17 17 16 15 14 4 6 8 3 18 10 9 3 2 3 1 3 2 3 0 3 4 7 7 4 3 2 3 3 6 6 4 20
24 24 24 24 24 24 24 23 22 21 19 16 15 15 15 12 2 5 8 4 9 20 8 8 6 7 1 2 1 3 3 4 4 3 7 11 6 6 2 2 4 3 4 16 21
23 23 23 24 24 25 25 24 22 21 19 17 16 14 12 8 3 5 1 11 14 14 6 4 7 6 2 2 3 3 4 4 5 7 4 6 10 2 2 3 8 10 11 18 20
24 24 25 25 26 26 25 24 22 20 18 16 14 12 10 2 3 3 6 15 14 7 4 5 4 5 3 3 3 1 7 5 6 3 3 5 4 7 6 11 9 14 19 20 21
25 26 27 27 27 27 26 25 22 19 17 13 11 8 3 1 7 3 9 13 7 6 6 5 4 4 2 3 2 4 4 4 8 9 7 4 10 5 12 12 11 5 19 22 21
26 26 27 28 27 26 26 24 21 18 13 8 6 3 1 0 2 8 9 7 6 4 5 5 6 5 1 2 2 4 4 7 7 10 4 3 8 3 5 1 6 11 16 18 21
27 28 29 30 28 27 26 24 21 15 9 5 5 3 3 7 2 7 8 5 6 4 4 3 2 3 2 4 3 5 7 8 6 2 3 3 8 5 8 10 7 9 11 14 17
28 29 30 31 30 29 27 24 17 5 2 5 7 2 5 3 2 4 4 1 3 4 1 3 4 2 2 2 7 5 5 5 4 3 2 3 7 12 16 10 11 5 9 13 16
30 31 32 33 32 29 25 19 8 8 8 10 2 0 4 0 2 2 4 3 4 3 1 1 3 3 5 3 5 6 1 2 8 2 5 5 7 9 13 11 12 5 7 9 11
31 32 33 34 33 29 26 3 7 7 4 3 3 1 2 1 4 2 1 3 2 2 4 5 5 3 4 5 3 4 3 5 5 1 7 5 5 8 10 13 11 11 8 5 10
31 32 34 35 34 29 10 1 5 4 4 2 4 3 5 7 4 3 4 5 3 6 2 3 4 5 8 6 3 3 2 5 6 5 2 3 5 6 6 9 14 12 11 9 11
31 32 34 37 32 27 1 6 3 4 7 4 6 6 6 0 3 1 6 4 3 3 2 5 3 6 5 5 6 4 2 6 7 2 2 7 3 1 6 5 4 9 12 11 10
30 30 31 38 34 4 2 6 3 4 1 7 5 4 2 7 4 5 7 3 3 4 3 5 4 3 3 1 1 2 4 4 6 6 3 3 3 1 3 3 4 6 7 9 10
30 29 27 39 3 5 3 3 7 5 4 5 3 2 3 3 3 5 6 5 1 3 8 4 4 2 5 1 3 2 5 5 4 3 3 3 4 3 3 5 4 6 9 12 16
31 28 23 11 3 2 4 9 5 3 4 2 1 1 1 4 3 2 3 3 5 4 5 5 2 2 4 3 1 4 3 2 1 3 3 5 4 6 6 8 10 8 9 10 11
35 30 24 2 0 6 11 7 3 5 0 3 4 5 3 1 3 2 2 5 2 4 3 4 2 3 2 2 2 5 3 7 4 3 3 4 4 5 2 3 6 6 9 9 12
39 35 12 2 2 8 5 3 4 3 3 5 3 5 2 4 5 2 2 5 1 4 5 5 3 5 4 5 5 8 6 4 5 5 4 2 1 7 4 4 2 7 9 10 9
41 32 3 3 8 7 3 5 2 1 2 2 4 2 4 6 4 7 3 3 6 5 3 3 4 4 6 1 3 3 4 5 3 3 4 3 4 4 5 5 3 6 6 8 10
32 4 3 3 1 2 5 4 5 2 5 6 2 6 6 5 3 4 4 2 0 2 5 3 3 4 1 2 3 4 5 1 4 2 1 3 5 5 3 3 6 8 7 7 8
4 5 4 9 2 4 5 3 2 3 4 2 2 2 4 6 5 5 3 3 2 3 2 5 1 2 6 4 5 7 2 4 4 2 4 5 5 5 5 6 7 9 9 8 7
3 4 3 9 2 5 3 4 4 5 1 3 1 2 2 2 0 2 2 2 5 1 6 3 3 4 2 3 1 4 3 6 4 4 3 3 5 6 5 4 7 9 9 9 8
3 3 3 3 4 1 1 2 4 4 4 4 1 2 2 1 2 3 3 3 7 1 2 2 5 2 5 3 3 2 4 4 4 5 4 2 6 2 3 5 5 8 9 9 6
2 3 4 3 2 2 5 4 2 7 6 6 5 4 2 2 3 4 3 5 9 4 3 4 1 2 7 6 4 1 2 4 4 3 5 4 6 4 4 5 5 7 9 8 10
3 3 4 4 1 4 3 3 6 8 2 3 3 3 3 4 5 2 5 2 5 3 7 7 3 6 6 7 3 4 5 6 5 3 3 6 9 8 6 7 8 7 9 7 11
2 2 2 2 3 3 0 2 2 6 4 5 3 3 2 3 2 1 1 4 3 4 3 4 3 5 5 6 5 5 10 11 7 7 5 12 6 9 7 6 7 5 6 9 11
1 2 4 2 2 2 1 1 1 5 2 5 2 3 0 5 6 6 4 4 5 2 2 1 3 6 6 8 7 5 10 10 12 6 6 5 8 3 4 5 6 7 6 9 11
2 2 3 2 3 1 3 1 1 2 3 3 5 1 2 2 6 4 6 3 5 5 3 3 5 2 7 4 3 6 5 4 2 1 2 5 7 4 7 9 7 7 6 10 11
Wind_Direction
341 338 336 332 329 325 323 321 322 320 320 321 320 319 320 324 314 160 241 222 175 157 112 122 124 219 95 278 218 114 47 270 270 300 289 293 346 215 257 164 220 188 143 183 139
341 338 335 331 327 323 320 318 318 318 319 317 316 316 321 330 295 251 249 177 132 153 121 146 151 138 135 225 244 110 120 236 211 240 286 302 291 317 318 286 252 175 56 133 141
341 338 333 332 327 323 319 317 316 315 316 314 314 315 318 319 302 250 6 199 161 179 150 139 116 138 181 186 194 179 210 226 267 262 251 274 314 108 210 300 209 223 157 156 155
335 331 327 323 318 317 317 316 314 311 309 309 309 312 315 262 124 359 20 145 160 168 123 112 119 128 146 196 217 234 251 248 268 250 315 276 271 315 213 237 230 224 162 159 165
328 324 320 317 315 315 314 312 309 304 303 300 294 302 287 15 254 105 99 114 117 149 168 151 138 145 176 205 258 199 262 252 267 269 235 280 267 236 260 278 266 169 163 177 174
327 324 321 318 318 317 315 310 305 304 296 285 271 254 171 320 146 149 126 133 145 144 173 153 182 197 189 241 162 236 246 269 267 287 258 251 289 132 292 292 248 164 179 182 179
328 326 324 322 323 323 320 315 311 303 283 251 214 219 103 227 47 149 155 179 173 170 152 207 209 106 146 315 315 305 332 340 337 14 315 313 321 288 320 331 325 189 182 183 185
330 329 328 326 329 330 328 322 320 307 180 163 172 247 239 241 105 145 160 211 189 195 177 160 167 106 111 307 5 22 41 359 296 11 337 64 287 298 352 344 351 193 184 188 192
333 332 331 330 331 334 331 329 57 97 117 136 135 212 276 270 284 255 157 182 151 144 197 142 87 79 33 70 2 6 269 269 318 231 4 80 287 13 0 9 10 324 203 195 196
334 333 333 332 334 335 331 282 98 89 123 208 255 27 310 352 301 131 195 119 19 41 59 56 49 61 34 72 245 257 304 300 253 300 1 359 342 358 8 24 4 5 354 243 217
335 333 334 333 332 332 348 28 12 355 38 238 252 266 290 296 267 209 152 111 147 60 117 13 70 230 233 200 201 259 237 231 269 264 256 258 91 348 2 22 11 6 9 359 332
336 335 334 330 330 322 255 80 146 235 315 253 248 270 260 336 311 269 123 120 135 161 107 27 243 248 252 162 200 218 262 290 283 307 134 343 52 300 22 27 9 345 355 344 333
335 334 334 327 324 9 353 129 307 157 70 299 213 209 219 145 211 253 135 129 154 135 177 161 253 318 185 337 146 156 182 241 225 352 11 335 325 29 327 344 14 349 326 329 325
334 336 338 327 33 327 304 304 296 196 48 292 332 294 134 214 280 212 190 137 109 206 151 211 273 341 65 355 102 151 212 243 264 106 220 49 261 301 293 295 356 351 346 338 332
333 335 337 337 289 326 302 324 317 61 61 320 305 154 118 152 302 347 167 73 176 181 103 258 148 98 77 307 277 251 317 287 273 142 91 346 76 269 5 343 340 341 345 333 330
331 332 337 99 30 251 316 316 50 44 179 358 351 352 14 323 280 337 134 56 99 133 25 244 320 60 308 355 45 312 3 32 47 88 53 260 122 283 262 259 299 320 336 331 336
329 326 323 176 258 322 314 45 39 116 337 334 331 20 11 320 339 345 128 29 84 22 358 4 348 321 41 30 9 39 50 352 8 13 220 178 82 236 233 228 290 319 324 323 326
328 321 191 231 284 340 36 49 108 331 303 321 2 354 63 3 2 349 57 67 31 82 82 72 331 4 343 170 255 24 127 146 258 207 259 319 234 240 207 118 352 306 309 320 321
326 336 330 272 254 134 67 68 189 337 325 339 16 55 355 355 10 50 41 101 123 159 118 87 304 316 91 341 111 317 39 198 105 28 35 277 294 316 35 247 332 313 331 320 313
333 347 298 319 156 55 73 217 246 222 325 9 81 125 46 339 39 33 18 327 38 54 83 195 323 360 302 38 27 96 184 25 9 3 307 299 285 250 291 307 312 314 318 316 312
25 6 267 346 58 46 116 233 279 264 302 184 207 75 65 25 85 26 342 82 8 25 82 125 108 288 354 36 181 4 24 57 114 131 192 292 262 219 257 309 299 291 295 303 307
9 349 311 9 42 48 107 219 289 309 355 357 105 111 129 192 2 48 76 352 337 228 75 46 128 173 241 281 287 251 154 122 118 273 231 193 266 287 240 275 292 295 302 302 293
4 266 315 48 119 328 310 302 299 352 0 4 349 30 60 90 46 36 16 329 15 58 140 184 23 33 346 352 349 246 220 119 100 80 217 180 264 232 264 310 301 295 301 307 308
358 350 325 40 20 114 20 340 331 344 272 3 293 58 88 56 19 126 360 315 2 83 59 85 122 163 193 215 173 271 230 223 156 154 218 226 276 291 284 287 291 302 298 312 307
44 292 196 316 347 6 314 334 20 353 335 353 1 47 148 119 69 101 327 321 344 349 52 98 210 193 246 234 219 238 258 268 199 217 197 282 225 270 281 279 284 278 292 303 303
56 23 351 286 314 293 355 322 77 317 254 330 68 318 35 166 184 196 191 205 241 292 143 34 237 184 237 238 251 235 243 244 250 238 238 261 279 237 296 295 291 276 294 300 304
320 322 116 290 331 69 212 143 98 338 272 241 304 312 258 286 219 216 200 196 220 218 200 172 165 142 267 243 323 305 240 238 247 111 177 244 250 342 320 322 314 321 316 305 302